| time (UTC) | temp F | wind direction | speed knots | gust knots | rain 1hr in | rain 24hr in | rain mn in | humidity % | barometer mb |
| 20260507050703 | 45 | 109 | 0.0 | 0.0 | 0.00 | 0.25 | 0.00 | 93 | 973.1 |
| 20260507043704 | 45 | 108 | 0.0 | 0.0 | 0.00 | 0.29 | 0.00 | 92 | 972.8 |
| 20260507040706 | 46 | 108 | 0.0 | 0.0 | 0.00 | 0.34 | 0.00 | 92 | 972.6 |
| 20260507040509 | 46 | 109 | 0.0 | 0.0 | 0.00 | 0.39 | 0.00 | 92 | 972.6 |
| 20260507030701 | 47 | 109 | 0.0 | 0.0 | 0.00 | 0.43 | 0.00 | 92 | 972.6 |
| 20260507023701 | 47 | 109 | 0.0 | 0.0 | 0.00 | 0.46 | 0.00 | 92 | 972.5 |
| 20260507013656 | 49 | 108 | 0.0 | 0.0 | 0.00 | 0.53 | 0.00 | 92 | 972.3 |
| 20260507010657 | 49 | 109 | 0.0 | 0.0 | 0.00 | 0.54 | 0.00 | 92 | 972.3 |
| 20260507003655 | 49 | 109 | 0.0 | 0.0 | 0.00 | 0.54 | 0.00 | 91 | 972.4 |
| 20260507000656 | 49 | 108 | 0.0 | 0.0 | 0.00 | 0.54 | 0.00 | 91 | 972.4 |
| 20260506233655 | 48 | 108 | 0.0 | 0.0 | 0.00 | 0.55 | 0.00 | 90 | 972.2 |
| 20260506230656 | 49 | 108 | 0.0 | 0.0 | 0.00 | 0.56 | 0.00 | 88 | 972.3 |
| 20260506225047 | 49 | 108 | 0.0 | 0.0 | 0.00 | 0.56 | 0.00 | 88 | 972.2 |
| 20260506220654 | 50 | 108 | 0.0 | 0.0 | 0.00 | 0.56 | 0.00 | 87 | 972.2 |
| 20260506213652 | 51 | 99 | 0.0 | 0.0 | 0.00 | 0.56 | 0.56 | 87 | 971.9 |
| 20260506210654 | 51 | 98 | 0.0 | 0.0 | 0.00 | 0.60 | 0.56 | 86 | 971.8 |
| 20260506203651 | 52 | 94 | 0.0 | 0.0 | 0.00 | 0.62 | 0.56 | 86 | 971.5 |
| 20260506200651 | 54 | 63 | 0.0 | 2.6 | 0.00 | 0.64 | 0.56 | 85 | 971.4 |
| 20260506193650 | 55 | 0 | 0.0 | 0.0 | 0.00 | 0.70 | 0.56 | 85 | 971.1 |
| 20260506190649 | 56 | 0 | 0.0 | 0.0 | 0.00 | 0.73 | 0.56 | 82 | 970.4 |
| 20260506183651 | 57 | 207 | 0.0 | 0.0 | 0.00 | 0.73 | 0.56 | 81 | 970.1 |
| 20260506180651 | 58 | 207 | 0.0 | 0.0 | 0.00 | 0.73 | 0.56 | 78 | 969.9 |
| 20260506173648 | 59 | 0 | 0.0 | 0.0 | 0.00 | 0.73 | 0.56 | 76 | 969.7 |
| 20260506170650 | 60 | 0 | 0.0 | 0.0 | 0.00 | 0.73 | 0.56 | 73 | 969.1 |
| 20260506163648 | 60 | 0 | 0.0 | 0.0 | 0.00 | 0.73 | 0.56 | 72 | 969.1 |
| 20260506160646 | 60 | 0 | 0.0 | 2.6 | 0.00 | 0.73 | 0.56 | 71 | 969.3 |
| 20260506153643 | 60 | 218 | 0.0 | 0.9 | 0.00 | 0.73 | 0.56 | 70 | 969.3 |
| 20260506150643 | 60 | 144 | 0.0 | 7.0 | 0.00 | 0.73 | 0.56 | 72 | 969.3 |
| 20260506143643 | 60 | 161 | 0.0 | 0.0 | 0.00 | 0.73 | 0.56 | 70 | 969.6 |
| 20260506140644 | 60 | 136 | 0.0 | 0.0 | 0.00 | 0.73 | 0.56 | 69 | 969.9 |
| 20260506133640 | 60 | 161 | 0.0 | 0.0 | 0.00 | 0.73 | 0.56 | 74 | 970.2 |
| 20260506130639 | 60 | 0 | 0.0 | 0.0 | 0.00 | 0.73 | 0.56 | 74 | 970.3 |
| 20260506123639 | 62 | 285 | 0.0 | 0.0 | 0.00 | 0.73 | 0.56 | 67 | 970.3 |
| 20260506120638 | 64 | 323 | 0.0 | 0.0 | 0.00 | 0.73 | 0.56 | 71 | 970.2 |
| 20260506113638 | 62 | 78 | 0.0 | 0.0 | 0.00 | 0.73 | 0.56 | 74 | 970.2 |
| 20260506110635 | 58 | 37 | 0.0 | 0.0 | 0.02 | 0.73 | 0.56 | 85 | 970.4 |
| 20260506103636 | 55 | 207 | 0.0 | 0.0 | 0.02 | 0.73 | 0.56 | 94 | 970.7 |
| 20260506100635 | 52 | 0 | 0.0 | 0.0 | 0.00 | 0.72 | 0.54 | 95 | 970.7 |
| 20260506093632 | 52 | 265 | 0.0 | 0.0 | 0.00 | 0.72 | 0.54 | 96 | 970.4 |
| 20260506090631 | 51 | 0 | 0.0 | 0.0 | 0.03 | 0.72 | 0.54 | 96 | 970.2 |
| 20260506083630 | 50 | 0 | 0.0 | 0.0 | 0.08 | 0.73 | 0.54 | 96 | 970.0 |
| 20260506082028 | 50 | 270 | 0.0 | 0.0 | 0.09 | 0.71 | 0.51 | 95 | 969.6 |
| 20260506070633 | 51 | 279 | 0.0 | 0.0 | 0.08 | 0.62 | 0.42 | 96 | 968.6 |
| 20260506062009 | 51 | 0 | 0.0 | 0.0 | 0.03 | 0.55 | 0.34 | 96 | 967.9 |